Home > Time Zones > World Clock > Weather > Mali > Bamako > Past weeks

Flag Weather past 2 weeks in Bamako, Mali

Now
75 °F

Clear.


Feels Like: 78 °F
Forecast: N/A
Wind: 2 mph from Northeast

Location: Bamako / Senou

Current Time: Nov 27, 2014 at 7:41:28 PM

Latest Report: Nov 27, 2014 at 7:00 PM


Visibility: 10 mi

Pressure: 29.86 "Hg

Humidity: 47%

Dew point: 54 °F

Location of BamakoLocation

Historic Weather in Bamako — Graph

°F

Bamako temperature yesterday

Maximum temperature yesterday: 95 °F (at 2:00 PM)
Minimum temperature yesterday: 66 °F (at 6:30 AM)
Average temperature yesterday: 79 °F

Past Weeks' High & Low Weather Summary

 TemperatureHumidityPressure
High99 °F (Nov 14, 1:30 PM)100% (Nov 22, 4:00 AM)30.01 "Hg (Nov 22, 4:00 AM)
Low57 °F (Nov 27, 6:00 AM)11% (Nov 14, 2:00 PM)29.77 "Hg (Nov 17, 3:00 PM)
Average81 °F45%29.92 "Hg
* Reported Nov 12 6:00 PM — Nov 27 6:00 PM, Bamako, Weather by CustomWeather, © 2014

Note: Actual official high and low records may vary slightly from our data, if they occured in-between our weather recording intervals... More about our weather records

Advertising

Bamako weather history for previous 24 hours

 ConditionsComfort  
Time TempWeatherWind HumidityBarometerVisibility
6:00 PM
Nov 27
84 °FSunny.2 mph37%29.86 "Hg10 mi
5:30 PM91 °FSunny.2 mph23%29.86 "Hg10 mi
5:00 PM95 °FSunny.No wind15%29.86 "Hg10 mi
4:30 PM95 °FSunny.1 mph12%29.86 "Hg10 mi
4:00 PM95 °FPassing clouds.5 mph13%29.86 "HgN/A
3:30 PM95 °FSunny.3 mph13%29.86 "Hg10 mi
3:00 PM95 °FSunny.7 mph16%29.83 "Hg10 mi
2:30 PM97 °FPassing clouds.5 mph13%29.89 "HgN/A
2:00 PM95 °FSunny.3 mph13%29.89 "Hg10 mi
1:30 PM95 °FSunny.3 mph14%29.89 "Hg10 mi
1:00 PM95 °FSunny.2 mph13%29.92 "Hg10 mi
12:30 PM93 °FSunny.2 mph14%29.92 "Hg10 mi
12:00 PM91 °FSunny.5 mph18%29.92 "Hg10 mi
11:00 AM91 °FSunny.3 mph16%29.98 "Hg10 mi
10:30 AM90 °FSunny.3 mph16%29.98 "Hg10 mi
10:00 AM86 °FClear.3 mph19%29.98 "Hg5 mi
9:30 AM82 °FClear.3 mph25%29.98 "Hg2 mi
9:00 AM81 °FClear.5 mph30%29.98 "Hg4 mi
8:00 AM70 °FClear.1 mph64%29.95 "Hg5 mi
7:30 AM63 °FClear.2 mph83%29.95 "Hg5 mi
7:00 AM59 °FClear.1 mph82%29.92 "Hg5 mi
6:30 AM59 °FClear.No wind88%29.92 "Hg5 mi
6:00 AM57 °FClear.No wind82%29.89 "Hg5 mi
5:30 AM61 °FClear.No wind77%29.92 "Hg5 mi
5:00 AM59 °FClear.No wind82%29.89 "Hg5 mi
4:30 AM59 °FClear.No wind88%29.89 "Hg5 mi
4:00 AM61 °FClear.No wind72%29.89 "Hg5 mi
3:30 AM63 °FClear.2 mph73%29.89 "Hg5 mi
3:00 AM61 °FClear.5 mph72%29.86 "Hg4 mi
2:30 AM63 °FClear.No wind77%29.89 "Hg5 mi
2:00 AM63 °FClear.No wind73%29.92 "Hg5 mi
1:30 AM64 °FClear.1 mph68%29.92 "Hg5 mi
1:00 AM66 °FClear.No wind68%29.92 "Hg5 mi
12:30 AM68 °FClear.No wind56%29.92 "Hg5 mi
12:00 AM68 °FClear.5 mph60%29.89 "Hg5 mi
11:30 PM
Nov 26
68 °FClear.5 mph49%29.95 "Hg10 mi
11:00 PM66 °FClear.3 mph56%29.95 "Hg10 mi
10:30 PM66 °FClear.2 mph60%29.95 "Hg10 mi
10:00 PM68 °FClear.No wind49%29.95 "Hg10 mi
9:00 PM72 °FClear.1 mph44%29.92 "Hg10 mi
8:30 PM72 °FClear.2 mph44%29.92 "Hg10 mi
8:00 PM73 °FClear.5 mph41%29.92 "Hg10 mi
7:30 PM73 °FClear.5 mph44%29.92 "Hg10 mi
7:00 PM75 °FClear.5 mph44%29.89 "Hg10 mi
Weather by CustomWeather, © 2014

See weather overviewHow to use our weather pages